Regional Weather Roundup
Issued by NWS Northern Indiana

Home | Current Version | Previous Version | Graphics & Text | Print | Product List | Glossary On
Versions: 1 2 3 4 5 6 7 8 9 10 11 12 13 14 15 16 17 18 19 20 21 22 23 24 25 26 27 28 29 30 31 32 33 34 35 36 37 38 39 40 41 42 43 44 45 46 47 48 49 50
000
ASUS43 KIWX 291000
RWRIWX

KIWX WEATHER ROUNDUP
NATIONAL WEATHER SERVICE NORTHERN INDIANA
500 AM EST MON DEC 29 2014

NOTE: "FAIR" INDICATES FEW OR NO CLOUDS BELOW 12,000 FEET WITH NO
SIGNIFICANT WEATHER AND/OR OBSTRUCTIONS TO VISIBILITY.

* THESE STATIONS ARE NOT UNDER NWS QUALITY CONTROL. THEY ALSO MAY NOT
  REPORT WEATHER SUCH AS PRECIPITATION OR FOG.

INZ001>027-291100-
NORTHERN INDIANA

CITY           SKY/WX    TMP DP  RH WIND       PRES   REMARKS
SOUTH BEND     CLOUDY    25  20  81 CALM      30.25S
GOSHEN         CLOUDY    24  21  88 CALM      30.24S
WARSAW*        CLEAR     19  18  93 CALM      30.24S FOG
ANGOLA*        CLEAR     19  18  93 CALM      30.23S
FORT WAYNE     PTCLDY    22  21  96 CALM      30.25F
PERU/GRISSOM   FOG       22  22 100 CALM      30.24S VSB 1

$$
INZ028>050-291100-
CENTRAL INDIANA

CITY           SKY/WX    TMP DP  RH WIND       PRES   REMARKS
LAFAYETTE      CLEAR     17  15  92 CALM      30.26S FOG
KOKOMO*        CLEAR     21  18  86 CALM      30.25S
MUNCIE*        CLEAR     23  20  88 CALM      30.24S FOG
INDIANAPOLIS   CLEAR     21  19  92 N5        30.23S WCI  15

$$
MIZ043>046-050>051-056>058-064>065-071>073-077>080-291100-
SOUTHWEST LOWER MICHIGAN

CITY           SKY/WX    TMP DP  RH WIND       PRES   REMARKS
BATTLE CREEK   MOCLDY    28  21  75 CALM      30.22F
BENTON HARBOR  CLOUDY    28  23  81 CALM      30.25F
COLDWATER*     PTCLDY    22  21  95 MISG      30.22F
HILLSDALE*     PTCLDY    22  20  95 CALM      30.21S
HOLLAND        CLOUDY    30  18  60 N7        30.27S WCI  23
GRAND RAPIDS   CLOUDY    27  17  66 N10       30.26R WCI  17
KALAMAZOO      MOCLDY    27  22  81 CALM      30.23F
STURGIS*       MOCLDY    27  21  80 CALM      30.23S
THREE RIVERS*  FAIR      27  23  85 CALM      30.24F

$$
OHZ001>008-015>018-024>025-291100-
NORTHWEST OHIO

CITY           SKY/WX    TMP DP  RH WIND       PRES   REMARKS
DEFIANCE       CLEAR     21  18  88 CALM      30.26S
FINDLAY        PTCLDY    25  20  81 N5        30.23F WCI  19
TOLEDO EXPRESS CLEAR     19  17  92 S3        30.26R
TOLEDO METCALF CLEAR     25  17  72 CALM      30.27R
LIMA           CLEAR     26  22  84 N5        30.22F WCI  20

$$
AND FOR LAKE MICHIGAN COASTAL AND OPEN LAKE BUOY OBSERVATIONS

STATION/POSITION TEMP    WIND        PRES    VSBY  WAVE
                 AIR SEA DIR/SP/G                  HT/PER
                 (F)     (DEG/KT/KT) (MB)    (MI)  (FT/S)
CALUMET HARBOR    29     270/  2/  3 1023.6R
MICHIGAN CITY     33     330/ 11/ 12   N/A
SAINT JOSEPH      30      60/  2/  3 1025.1R

$$
&&


USA.gov is the U.S. government's official web portal to all federal, state and local government web resources and services.